Follow iAlert.com on twitter @ialertcom
Search For Active Alerts in Your Area  
  Hi Guest:  [ Sign-up / Services ] [ Login ]

Current weather by "City, St" or "zip code"  
 

Advertise Here

Current Conditions: Bellaire, Antrim County Airport, MI

Partly Cloudy


36.0 F

Last Updated on Feb 25 2018, 3:55 pm EST
Humidity: 63%
Wind Speed: SW 11.5 G 27.6 mph
Barometer 29.71 in
Dewpoint: 24.3 F
Visibility: 10.00 mi
Precip: --
Heat Index: NA
Wind Chill: 28 F
Current conditions at:

Bellaire, Antrim County Airport, MI (KACB)

Lat: 44.98 Lon: 85.198

Local Radar Image active severe weather and emergency alerts image image weather storm and storm spotter reports image weather observation monitoring service image
Local
Radar
Active
Alerts
Storm Reports Obs
Monitoring

iAlert Weather and Emergency Alert Notification Services:


ialert severe weather and emergency alerts by text message and email ialert daily weather forecast by email and text message service ialert real-time weather-observation monitoring and alert notification service ialert storm report monitoring alert notification

Observation History for Bellaire, Antrim County Airport, MI


Time Wind
(mph)
Vis
(mi)
Weather Precip (in) Temperature (F) Relative
Humidity
Wind
Chill
(°F)
Heat
Index
(°F)
Pressure
Air Dwpt altimeter
(in)
sea level
(mb)
3:55 pm EST SW 11.5 G 27.6 10.00 Partly Cloudy -- 36.0 24.3 63% 28 NA 29.71 M
2:55 pm EST SW 13.8 G 31.1 10.00 Mostly Cloudy -- 35.0 24.6 67% 26 NA 29.68 M
1:55 pm EST SW 12.7 G 21.9 10.00 Overcast -- 35.0 24.8 66% 26 NA 29.66 M
12:55 pm EST SW 10.4 G 24.2 10.00 Overcast -- 33.0 24.6 72% 25 NA 29.64 M
11:55 am EST SW 13.8 G 27.6 10.00 Overcast -- 31.0 24.6 77% 21 NA 29.64 M
10:55 am EST SW 15.0 G 25.3 10.00 Overcast -- 31.0 25.2 79% 20 NA 29.59 M
9:55 am EST SW 13.8 G 23.0 10.00 Overcast -- 32.0 26.4 80% 22 NA 29.53 M
8:55 am EST SW 11.5 G 33.4 10.00 Overcast -- 34.0 28.4 81% 26 NA 29.48 M
7:55 am EST SW 12.7 G 27.6 10.00 Overcast -- 36.0 32.5 89% 28 NA 29.42 M
6:55 am EST SW 11.5 G 21.9 10.00 Overcast -- 38.0 36.7 94% 31 NA 29.37 M
5:55 am EST S 10.4 G 16.1 7.00 Overcast -- 38.0 36.9 97% 31 NA 29.31 M
4:55 am EST S 8.1 G 17.3 5.00 Light Snow -- 37.0 35.8 96% 31 NA 29.32 M
3:55 am EST SE 10.4 G 21.9 10.00 Overcast -- 37.0 34.7 93% 30 NA 29.32 M
2:55 am EST SE 12.7 G 23.0 10.00 Overcast -- 36.0 34.3 94% 28 NA 29.38 M
1:55 am EST E 19.6 G 27.6 7.00 Light Snow -- 35.0 33.1 94% 24 NA 29.48 M
12:55 am EST E 4.6 G 21.9 7.00 Light Snow -- 34.0 30.9 89% 30 NA 29.58 M
11:55 pm EST E 13.8 G 24.2 10.00 Overcast -- 33.0 28.2 81% 23 NA 29.68 M
10:55 pm EST SE 10.4 G 19.6 10.00 Overcast -- 33.0 27.3 81% 25 NA 29.78 M
9:55 pm EST SE 11.5 G 18.4 10.00 Overcast -- 32.0 26.2 78% 23 NA 29.85 M
8:55 pm EST E 4.6 G 18.4 10.00 Overcast -- 34.0 26.2 74% 30 NA 29.90 M
7:55 pm EST SE 12.7 G 18.4 10.00 Overcast -- 36.0 28.2 72% 28 NA 29.97 M
6:55 pm EST SE 6.9 10.00 Overcast -- 38.0 27.7 65% 33 NA 29.99 M
5:55 pm EST E 4.6 10.00 Partly Cloudy -- 40.0 27.0 59% 37 NA 30.00 M
4:55 pm EST E 5.8 10.00 Fair -- 41.0 27.1 57% 37 NA 30.04 M

Regional Weather Observation


Bellaire, Antrim County Airport, MI (KACB)

Partly Cloudy
36.0 F

Beaver Island, Beaver Island Airport, MI (KSJX)

Overcast and Breezy
31.0 F

Harbor Springs, Harbor Springs Airport, MI (KMGN)

Overcast
33.0 F

Cherry Capital Airport, MI (KTVC)

Partly Cloudy
38.0 F

Gaylord Regional Airport, MI (KGLR)

Fair and Breezy
34.0 F

Pellston Regional Airport of Emmet County, MI (KPLN)

Overcast and Breezy
33.0 F

Advertise Here